This demonstration page uses our WeatherBlox Daily Observations layout. Learn more.

Left ArrowRight Arrow

34.74481, -87.66753

Hourly Observations for October 7, 2022

Temp ( °F °C ) Dew Point ( °F °C ) Humidity (%) Winds ( mph kmh ) Pressure ( in mb ) Visibility ( mi km ) Precip ( " mm )
12:53 am 00:53 Clear 57 13.9 52 11.1 83 83 Calm 30.11 1020 10 16 0.00 0.00
1:53 am 01:53 Clear 55 12.8 51 10.6 86 86 Calm 30.11 1020 10 16 0.00 0.00
2:53 am 02:53 Clear 54 12.2 52 11.1 93 93 N 5 7 30.11 1020 10 16 0.00 0.00
3:53 am 03:53 Clear 53 11.7 49 9.4 86 86 Calm 30.12 1020 10 16 0.00 0.00
4:53 am 04:53 Clear 53 11.7 51 10.6 93 93 Calm 30.13 1020 8 13 0.00 0.00
5:53 am 05:53 Clear 51 10.6 48 8.9 89 89 Calm 30.15 1021 8 13 0.00 0.00
6:53 am 06:53 Sunny with Mist and Fog 51 10.6 49 9.4 92 92 Calm 30.17 1022 5 8 0.00 0.00
7:14 am 07:14 Sunny with Mist and Fog 52 11.1 50 10 93 93 Calm 30.19 1022 2 3 0.00 0.00
7:25 am 07:25 Sunny with Mist and Fog 53 11.7 51 10.6 93 93 Calm 30.19 1022 3 5 0.00 0.00
7:53 am 07:53 Sunny 57 13.9 53 11.7 87 87 Calm 30.19 1022 8 13 0.00 0.00
8:53 am 08:53 Sunny 64 17.8 57 13.9 78 78 Calm 30.20 1023 10 16 0.00 0.00
9:53 am 09:53 Sunny 72 22.2 57 13.9 59 59 Calm 30.21 1023 10 16 0.00 0.00
10:53 am 10:53 Sunny 76 24.4 55 12.8 48 48 WNW 6 9 30.21 1023 10 16 0.00 0.00
11:53 am 11:53 Sunny 80 26.7 52 11.1 38 38 NW 7 11 30.20 1023 10 16 0.00 0.00
12:53 pm 12:53 Sunny 80 26.7 53 11.7 39 39 VRB 5 7 30.18 1022 10 16 0.00 0.00
1:53 pm 13:53 Sunny 82 27.8 53 11.7 37 37 W 3 6 30.16 1021 10 16 0.00 0.00
2:53 pm 14:53 Cloudy 83 28.3 53 11.7 36 36 NNE 6 9 30.14 1021 10 16 0.00 0.00
3:53 pm 15:53 Mostly Cloudy 83 28.3 52 11.1 34 34 VRB 6 9 30.14 1021 10 16 0.00 0.00
4:53 pm 16:53 Sunny 80 26.7 53 11.7 39 39 NNW 7 11 30.14 1021 10 16 0.00 0.00
5:53 pm 17:53 Sunny 77 25 54 12.2 45 45 N 7 11 30.14 1021 10 16 0.00 0.00
6:53 pm 18:53 Clear 73 22.8 55 12.8 53 53 NNW 6 9 30.16 1022 10 16 0.00 0.00
7:53 pm 19:53 Clear 72 22.2 56 13.3 57 57 N 6 9 30.19 1022 10 16 0.00 0.00
8:53 pm 20:53 Clear 70 21.1 55 12.8 59 59 NNE 6 9 30.22 1023 10 16 0.00 0.00
9:53 pm 21:53 Clear 67 19.4 52 11.1 59 59 NNE 8 13 30.23 1024 10 16 0.00 0.00
10:53 pm 22:53 Clear 66 18.9 48 8.9 52 52 NNE 9 15 30.25 1024 10 16 0.00 0.00
11:53 pm 23:53 Clear 63 17.2 46 7.8 54 54 NE 7 11 30.26 1025 10 16 0.00 0.00

Powered by AerisWeather